Temperature
20 19 18 18 18 19 20 20 20 19 20 20 20 21 20 19 19 19 20 21 22 22 22 21 21 21 21 20 19 19 19 18 17 17 17 16 16 15 15 15 15 14 14 14
18 18 18 19 18 18 18 19 19 20 20 20 21 20 19 20 20 20 21 22 22 22 22 21 21 20 20 19 19 19 18 17 16 16 16 16 16 15 15 14 14 14 14 14
18 19 20 20 20 19 19 18 20 20 20 19 19 19 18 19 18 18 17 17 17 17 18 18 18 18 18 18 19 18 17 17 16 16 16 15 15 14 14 14 14 14 14 14
19 20 20 20 20 20 20 20 20 20 19 18 18 18 18 15 14 12 13 14 14 15 16 17 17 17 17 18 18 18 18 17 16 15 15 14 14 14 14 14 14 14 14 14
20 21 22 21 21 21 20 19 18 17 17 18 16 17 18 15 13 12 11 12 13 14 16 17 18 18 18 18 18 17 16 15 15 14 14 14 14 14 14 13 13 13 12 12
20 21 21 22 20 20 18 17 14 13 14 16 17 17 15 12 11 12 11 12 13 14 16 16 17 16 16 15 15 14 14 14 15 15 14 13 13 12 12 11 11 11 10 10
20 20 20 21 20 19 17 18 17 17 16 17 15 15 12 10 10 11 10 11 12 13 14 14 14 14 14 14 14 14 15 15 15 14 13 12 11 10 9 9 9 9 9 9
17 16 20 20 20 18 18 16 16 16 15 15 15 14 11 11 11 11 10 10 11 12 13 13 13 13 13 13 13 13 13 13 12 11 10 10 9 8 8 8 8 8 8 8
18 18 20 20 19 19 17 17 16 14 13 14 14 12 12 11 10 10 10 10 10 10 11 11 12 12 12 12 12 12 11 10 10 9 9 9 9 9 9 8 8 8 8 8
18 17 19 19 19 18 17 17 14 16 14 13 14 12 11 10 9 8 8 8 9 10 11 11 12 12 12 11 11 10 10 10 9 9 9 9 9 8 8 7 7 7 6 6
16 17 17 17 17 17 17 15 15 14 14 14 14 12 10 9 8 7 7 8 9 10 10 11 11 11 11 10 10 10 9 9 9 9 8 8 8 7 7 6 5 4 3 3
15 14 15 15 14 14 14 13 13 14 13 11 12 11 9 8 8 7 7 8 8 9 9 9 10 10 10 9 9 9 9 8 8 8 8 8 7 6 6 5 4 2 2 1
15 13 14 14 15 14 13 12 11 10 11 11 12 10 8 8 7 7 7 8 8 9 9 9 10 9 9 9 8 8 8 7 7 7 7 6 5 4 3 3 2 1 1 1
12 11 13 13 13 13 12 12 12 12 11 12 11 8 7 7 7 7 8 8 8 9 9 9 9 9 8 8 7 7 6 6 6 5 5 4 3 2 1 1 0 1 1 1
10 11 11 11 12 12 12 12 12 12 11 11 9 7 7 7 7 8 8 8 9 9 9 9 9 9 8 8 7 6 6 5 4 4 3 2 2 1 1 1 1 1 1 0
9 10 11 10 11 11 10 10 9 9 8 7 7 6 7 8 8 9 9 8 8 8 8 8 8 7 6 6 5 4 4 3 2 2 1 1 1 1 1 1 1 1 0 1
10 8 10 9 10 11 10 9 9 7 7 7 8 7 7 7 8 8 9 9 8 8 8 7 6 5 5 4 3 2 1 0 -0 0 0 0 1 1 1 1 1 0 1 1
7 6 7 8 10 9 8 8 8 7 6 6 6 6 7 8 9 9 9 8 8 7 6 5 4 4 3 3 1 0 -1 -1 -1 0 1 1 1 1 1 1 1 1 1 1
7 7 7 7 7 7 7 7 7 7 6 7 6 6 8 8 7 8 9 8 8 6 5 4 3 2 2 1 -1 -1 -1 -0 0 1 1 1 1 1 1 2 1 1 1 1
6 7 7 6 7 7 7 8 9 8 6 7 7 7 7 6 5 6 8 8 6 4 3 3 2 2 1 -1 -1 -0 0 1 1 1 1 1 1 2 2 2 1 1 1 1
7 6 6 6 7 7 8 8 9 7 7 8 8 8 8 6 6 8 7 6 4 3 3 2 1 1 -0 -1 -0 -0 0 0 0 1 1 1 1 2 2 2 2 2 1 1
7 7 6 6 7 6 7 7 7 7 8 9 8 8 8 8 8 8 7 5 3 3 2 1 0 -0 -0 0 0 0 0 1 1 2 2 2 1 1 1 1 2 1 1 0
6 7 5 6 7 7 9 9 10 10 9 9 9 9 8 8 7 7 5 4 3 2 1 0 -1 -0 0 0 0 1 1 2 3 3 2 2 1 1 1 1 1 1 0 -0
7 6 5 6 6 7 9 9 10 10 10 9 9 8 8 7 6 5 4 3 2 1 0 0 0 1 1 1 2 2 3 3 3 3 3 2 2 2 1 1 1 1 -0 -1
6 6 5 5 6 7 8 9 9 9 9 9 9 8 8 7 6 4 3 1 1 1 1 1 1 2 2 3 3 4 4 3 3 3 3 2 2 2 1 1 1 0 -0 -1
5 5 5 6 6 7 8 9 9 9 9 9 8 7 7 5 4 3 2 1 1 1 2 3 3 3 3 4 4 5 5 4 4 3 3 3 2 2 2 2 2 1 0 -0
Wind_Speed
3 1 5 6 6 5 3 1 3 7 4 1 4 6 3 2 5 7 4 5 8 8 2 4 6 7 8 8 8 8 9 9 6 4 2 3 3 3 4 7 9 10 10 10
4 5 9 4 3 4 4 3 4 5 5 1 2 4 3 3 3 4 4 5 6 4 4 5 8 9 8 9 10 10 9 8 5 4 3 3 3 3 3 2 4 6 5 4
5 7 3 4 3 3 4 5 4 4 2 5 5 6 8 7 9 12 10 8 9 6 6 7 9 10 10 9 9 9 8 8 6 6 5 4 4 2 2 2 2 2 2 3
6 6 3 2 4 6 2 3 4 4 4 3 4 1 3 5 9 11 10 11 11 10 10 10 10 9 9 8 9 9 9 9 7 6 5 4 2 1 3 3 4 4 6 7
5 3 1 1 3 7 4 5 4 5 5 2 5 2 5 6 9 9 9 10 11 10 11 12 11 10 10 8 8 8 8 8 6 7 6 5 2 2 3 3 5 6 6 8
5 3 2 1 3 3 7 7 8 6 5 2 1 1 4 6 7 4 6 8 9 10 11 12 12 11 10 8 8 7 8 7 5 6 5 3 2 3 4 4 5 6 6 6
3 3 3 1 5 4 6 6 3 3 3 3 2 3 2 8 9 2 4 7 9 10 10 10 10 9 8 7 7 6 7 6 7 7 7 6 6 5 5 5 5 6 6 6
4 4 2 1 3 7 4 8 7 6 4 3 2 3 1 4 8 7 7 8 10 10 9 10 10 9 9 9 8 8 7 8 9 9 8 8 7 5 4 4 5 6 7 9
6 5 1 3 2 5 5 4 5 7 2 1 1 3 2 4 8 9 9 10 10 9 8 8 7 8 8 7 7 8 8 9 8 7 6 6 5 5 5 6 6 6 7 8
6 3 1 0 4 7 4 7 4 3 6 4 4 4 7 4 3 6 8 8 8 8 8 8 8 8 8 7 7 8 7 5 4 4 5 5 5 5 6 7 8 9 9 10
5 5 1 1 2 3 3 3 4 4 3 5 6 5 3 5 3 3 5 5 6 6 7 7 7 6 6 7 7 8 8 8 8 8 7 7 7 7 8 8 10 11 12 12
3 6 3 2 3 3 5 4 4 4 2 3 4 3 4 5 4 3 3 4 3 4 5 5 6 6 7 7 7 7 7 7 8 8 9 9 10 10 10 10 11 12 13 13
5 5 5 1 3 3 6 4 3 5 4 3 4 3 3 5 4 3 2 1 3 6 7 7 6 7 7 8 8 9 9 11 11 11 11 10 10 10 10 11 12 13 14 13
5 5 5 7 5 4 4 2 3 4 3 3 4 7 5 4 3 2 2 3 5 7 6 6 7 7 7 8 9 10 10 10 10 10 10 9 10 9 10 11 13 13 12 11
5 5 4 5 4 5 3 2 2 2 3 3 3 6 6 5 3 3 3 5 8 11 11 9 6 6 7 8 9 9 9 9 9 9 9 9 10 10 11 12 12 11 10 9
4 5 4 4 4 5 4 3 5 4 4 5 7 4 3 3 1 4 6 7 7 9 11 10 6 6 8 10 10 11 11 11 11 10 10 10 11 12 12 12 11 9 8 10
4 6 4 2 1 4 1 2 4 4 2 5 5 5 5 2 3 5 5 7 8 8 9 8 7 8 10 11 11 12 13 12 11 12 12 11 11 12 11 10 9 8 10 12
6 5 4 3 2 3 5 3 6 8 2 3 6 6 6 4 3 5 5 6 7 6 6 5 8 10 10 9 10 11 13 12 12 12 13 13 11 10 9 8 8 9 9 12
5 7 5 4 4 2 3 2 5 5 1 3 5 6 4 2 4 7 7 3 3 2 4 5 5 6 8 9 11 12 13 12 11 11 12 11 9 8 8 8 10 9 9 11
6 6 6 4 5 7 6 6 5 4 1 7 7 7 5 3 2 6 4 2 4 5 3 3 6 7 8 9 10 10 10 11 11 11 10 10 9 9 9 9 8 6 6 8
4 4 4 4 3 4 4 6 6 4 5 8 7 6 4 5 7 2 3 4 3 2 3 5 7 7 7 7 8 9 10 10 11 10 9 9 9 8 8 7 6 7 7 9
6 6 4 4 3 5 7 7 6 5 5 6 6 6 5 5 5 2 2 2 2 3 5 6 6 6 6 6 6 8 9 11 11 10 8 8 8 7 7 8 9 8 9 9
2 5 5 5 3 3 6 5 5 6 6 6 6 5 3 2 1 1 1 2 3 4 5 5 5 5 6 5 5 8 10 11 10 7 7 7 7 7 7 7 8 7 7 8
1 1 4 3 1 3 4 4 5 5 5 5 5 4 3 1 2 2 2 3 4 4 5 4 4 4 5 6 7 8 10 9 8 7 7 6 7 8 7 6 6 6 7 8
2 3 5 4 3 4 2 4 6 5 4 4 4 3 4 4 2 1 1 2 3 3 4 4 4 4 6 9 10 10 10 8 6 6 5 5 5 5 6 7 5 4 3 4
1 4 5 5 6 5 5 4 4 5 6 6 5 4 4 3 3 1 1 1 1 3 3 4 6 7 8 10 11 11 10 7 5 5 4 3 4 5 7 7 4 5 6 9
Wind_Direction
10 27 245 230 194 187 183 243 286 279 282 357 274 272 277 161 186 216 239 264 261 258 247 160 121 108 98 87 75 50 48 48 55 59 65 77 69 67 61 57 60 61 56 49
16 266 248 234 196 184 191 214 248 274 330 40 334 340 349 74 49 26 307 274 294 307 58 85 95 97 92 91 92 89 96 100 92 92 80 90 105 120 128 105 68 63 63 53
196 246 234 201 213 174 184 178 186 197 350 36 35 355 3 14 23 22 27 45 39 45 63 63 69 80 85 84 88 96 107 106 113 126 116 95 88 55 340 327 321 320 342 342
238 257 250 217 210 144 180 165 134 106 82 359 43 245 11 26 32 16 6 29 31 28 42 47 52 58 67 78 88 102 111 111 115 124 124 110 87 314 296 297 302 317 336 343
238 243 157 193 204 154 170 107 76 73 85 64 16 69 313 5 28 19 8 24 31 31 46 52 54 63 67 76 89 95 91 77 62 56 52 60 46 302 294 305 318 328 333 343
248 260 236 204 57 88 124 80 45 42 59 76 220 124 320 354 326 345 7 26 29 32 45 53 57 65 65 63 72 78 83 72 58 56 46 53 13 329 330 329 332 332 327 327
286 297 311 64 81 47 81 95 47 2 25 232 189 121 279 325 336 36 56 32 30 33 41 52 61 63 63 59 56 60 64 49 35 43 42 39 34 24 2 345 334 322 320 318
187 230 272 343 163 158 145 137 161 183 191 261 45 117 206 6 7 21 40 42 46 45 47 52 47 40 27 22 29 39 44 40 32 34 38 47 42 32 3 331 314 304 303 304
180 213 335 19 60 107 143 128 128 117 94 214 186 128 154 51 29 21 33 40 35 32 39 45 36 24 16 22 33 38 47 47 44 44 43 38 20 354 318 301 287 287 293 300
186 199 242 37 53 41 102 128 114 121 155 207 245 212 188 153 46 28 25 25 21 22 25 17 14 18 20 29 40 46 53 56 44 32 20 3 343 326 319 317 316 313 306 299
133 162 225 344 121 168 94 68 88 125 148 183 209 240 179 152 139 60 23 33 36 19 12 11 11 13 22 28 31 29 22 17 13 4 354 347 338 330 323 314 309 305 300 292
131 117 102 13 326 52 96 111 126 152 197 149 184 216 124 110 77 43 46 72 36 357 348 348 354 7 18 15 12 12 6 1 353 348 345 340 330 322 315 307 302 300 297 293
144 112 108 57 293 33 52 30 84 104 96 149 173 207 145 102 86 85 139 171 317 326 332 335 350 3 3 0 358 358 358 355 346 339 331 320 310 308 309 308 306 304 301 299
94 95 136 167 177 136 105 47 55 86 122 173 194 161 168 141 144 160 205 260 298 305 317 341 356 350 344 346 349 351 345 339 328 319 307 300 297 299 305 307 308 309 308 311
70 96 88 66 77 88 105 171 122 116 163 168 150 142 168 174 193 221 279 336 338 335 336 345 357 345 341 342 345 344 334 328 319 311 309 311 313 310 315 319 319 319 324 334
60 103 105 56 50 95 101 122 122 102 100 96 104 106 184 196 248 313 326 322 307 308 308 310 325 350 346 344 341 335 331 329 327 321 318 320 325 326 323 321 323 326 332 339
75 106 107 128 56 70 323 250 153 130 137 149 163 180 174 195 275 287 281 257 254 281 294 318 359 360 347 341 334 324 321 321 324 320 315 317 320 320 323 330 339 345 336 331
110 100 100 124 126 230 285 282 122 105 61 113 125 158 185 210 261 289 273 253 263 291 321 354 3 349 338 327 321 319 320 322 321 317 317 320 320 319 328 339 343 335 327 329
93 128 113 136 137 166 283 160 145 134 186 209 164 190 223 286 351 299 278 234 251 350 38 29 354 324 320 323 324 325 322 324 320 321 325 328 327 331 336 340 334 333 337 342
57 82 113 142 158 206 208 177 171 126 197 214 193 204 215 133 248 277 298 61 72 49 27 346 325 316 327 327 322 320 319 321 324 328 330 335 345 349 345 339 336 345 354 349
85 67 112 143 170 236 191 146 140 162 203 191 198 212 196 191 230 259 71 80 67 24 321 325 325 328 328 315 319 324 322 329 331 333 337 346 358 1 360 0 7 3 0 356
158 141 151 138 159 215 162 141 172 164 146 169 189 204 206 235 283 358 98 101 37 341 329 334 333 328 310 312 324 326 329 328 330 338 350 2 10 16 15 17 9 7 11 9
180 167 163 165 193 150 149 153 147 137 140 170 179 189 201 244 248 150 75 25 345 336 326 331 327 326 314 314 326 324 316 321 326 342 6 12 13 12 9 9 3 2 13 17
74 109 101 105 88 137 154 113 130 147 161 170 172 167 156 161 120 115 40 1 341 332 337 340 342 331 308 314 318 305 302 311 324 344 357 4 10 4 4 5 8 15 17 8
178 115 99 88 116 91 153 163 157 173 173 156 123 96 102 112 115 83 22 349 331 343 341 342 340 321 305 311 309 304 299 303 316 329 338 346 352 360 3 360 358 16 15 348
190 150 145 177 182 158 187 171 158 183 195 170 139 102 83 111 155 148 93 317 322 344 342 348 338 321 309 311 311 308 304 297 292 294 301 315 334 349 355 356 1 15 22 15
Height
1499 1504 1509 1508 1509 1510 1511 1513 1516 1512 1502 1504 1505 1501 1498 1497 1498 1499 1502 1505 1508 1509 1512 1515 1518 1521 1524 1528 1532 1536 1538 1540 1540 1540 1541 1542 1543 1543 1544 1544 1544 1545 1544 1543
1507 1508 1501 1501 1503 1508 1511 1514 1515 1509 1502 1503 1503 1503 1501 1501 1504 1508 1508 1508 1508 1508 1508 1511 1513 1517 1522 1526 1529 1532 1537 1540 1542 1542 1542 1543 1542 1541 1541 1541 1542 1542 1541 1540
1507 1502 1496 1499 1501 1506 1509 1512 1509 1511 1505 1506 1508 1512 1508 1505 1504 1505 1507 1507 1507 1507 1508 1510 1512 1515 1520 1525 1528 1532 1536 1539 1541 1542 1542 1542 1542 1542 1541 1541 1540 1539 1538 1536
1500 1495 1494 1497 1499 1501 1508 1501 1504 1507 1514 1522 1521 1530 1520 1521 1520 1518 1515 1511 1509 1509 1510 1512 1515 1517 1521 1525 1529 1531 1534 1536 1539 1541 1541 1540 1541 1541 1540 1538 1536 1534 1532 1529
1497 1491 1492 1495 1494 1494 1502 1502 1507 1512 1519 1524 1527 1531 1526 1522 1525 1526 1522 1517 1515 1515 1515 1516 1518 1521 1524 1527 1529 1531 1533 1535 1537 1537 1537 1537 1538 1538 1535 1533 1531 1530 1528 1525
1491 1488 1489 1489 1491 1492 1498 1506 1516 1524 1530 1537 1530 1533 1538 1538 1536 1530 1528 1523 1521 1520 1519 1520 1522 1525 1527 1530 1532 1533 1534 1535 1535 1535 1534 1534 1534 1533 1531 1528 1526 1525 1523 1520
1495 1491 1488 1488 1494 1496 1502 1513 1531 1535 1540 1538 1533 1538 1549 1542 1536 1532 1531 1528 1525 1524 1525 1526 1528 1531 1533 1535 1535 1535 1534 1535 1535 1534 1532 1531 1530 1529 1528 1526 1522 1519 1515 1512
1507 1513 1491 1489 1491 1498 1503 1512 1532 1542 1547 1541 1532 1541 1548 1542 1539 1536 1534 1533 1531 1531 1532 1533 1534 1536 1537 1537 1537 1536 1535 1535 1534 1532 1531 1529 1528 1525 1523 1520 1517 1512 1508 1503
1502 1501 1490 1488 1488 1492 1506 1509 1512 1530 1543 1545 1542 1546 1544 1541 1541 1540 1538 1536 1536 1537 1537 1538 1538 1538 1539 1538 1537 1535 1535 1533 1532 1530 1528 1525 1524 1521 1518 1513 1509 1505 1500 1495
1490 1501 1493 1489 1489 1494 1497 1502 1520 1523 1541 1549 1541 1543 1542 1542 1543 1542 1541 1540 1539 1540 1540 1540 1539 1539 1538 1537 1535 1534 1533 1531 1530 1528 1525 1523 1520 1516 1511 1506 1501 1496 1491 1486
1486 1496 1500 1497 1498 1501 1503 1508 1512 1522 1527 1535 1541 1544 1539 1541 1543 1543 1542 1541 1541 1541 1540 1540 1539 1539 1538 1537 1536 1534 1533 1530 1527 1525 1522 1518 1513 1508 1502 1497 1491 1486 1481 1476
1485 1498 1507 1508 1504 1500 1503 1510 1515 1524 1528 1536 1536 1543 1541 1542 1543 1544 1543 1543 1543 1542 1542 1541 1540 1539 1538 1537 1535 1533 1530 1526 1523 1519 1515 1511 1506 1501 1495 1489 1484 1478 1473 1467
1483 1498 1514 1516 1514 1508 1511 1514 1519 1524 1530 1534 1536 1546 1543 1543 1544 1544 1545 1545 1544 1543 1542 1541 1540 1538 1536 1535 1533 1530 1526 1522 1518 1514 1509 1504 1500 1494 1488 1482 1476 1471 1465 1460
1481 1499 1507 1514 1511 1509 1515 1517 1518 1521 1531 1531 1533 1542 1544 1544 1545 1545 1545 1545 1544 1542 1541 1539 1537 1536 1534 1532 1529 1526 1522 1518 1513 1508 1503 1498 1492 1487 1482 1476 1471 1466 1461 1457
1484 1500 1506 1509 1506 1508 1514 1517 1516 1520 1524 1529 1533 1540 1542 1543 1543 1543 1543 1542 1541 1539 1538 1538 1536 1534 1533 1530 1527 1522 1516 1512 1507 1502 1496 1491 1486 1482 1478 1473 1469 1464 1461 1458
1488 1501 1506 1514 1512 1513 1519 1520 1522 1525 1531 1535 1538 1541 1541 1540 1540 1540 1540 1541 1540 1540 1539 1537 1535 1533 1530 1526 1522 1516 1511 1506 1501 1496 1491 1486 1482 1479 1476 1471 1468 1465 1462 1458
1491 1503 1510 1519 1517 1517 1525 1523 1524 1529 1530 1533 1533 1537 1537 1538 1538 1539 1539 1539 1539 1538 1536 1534 1532 1530 1527 1523 1518 1511 1505 1499 1495 1492 1488 1485 1481 1478 1476 1473 1470 1467 1464 1459
1495 1506 1515 1523 1522 1531 1530 1523 1524 1528 1532 1532 1532 1534 1535 1536 1538 1538 1538 1537 1536 1535 1533 1531 1529 1527 1524 1519 1514 1508 1502 1497 1493 1491 1488 1485 1482 1479 1477 1474 1471 1468 1464 1459
1491 1502 1515 1524 1528 1533 1533 1526 1527 1529 1536 1534 1534 1534 1535 1536 1538 1536 1536 1535 1533 1532 1530 1529 1526 1524 1520 1516 1511 1508 1504 1499 1495 1492 1489 1486 1483 1480 1477 1474 1471 1468 1464 1459
1497 1499 1510 1522 1524 1530 1523 1520 1521 1527 1537 1533 1533 1533 1534 1536 1539 1536 1534 1532 1531 1529 1528 1526 1523 1521 1517 1515 1512 1509 1505 1501 1498 1494 1490 1487 1484 1480 1478 1475 1472 1469 1466 1462
1503 1507 1513 1520 1518 1518 1517 1518 1522 1533 1532 1529 1530 1532 1533 1534 1534 1533 1531 1530 1529 1529 1527 1524 1521 1519 1516 1514 1513 1510 1507 1504 1500 1496 1492 1488 1485 1483 1480 1478 1475 1472 1469 1465
1499 1506 1513 1517 1517 1522 1515 1518 1523 1524 1524 1527 1528 1530 1531 1532 1531 1530 1529 1528 1528 1527 1525 1522 1520 1518 1516 1514 1513 1512 1509 1506 1501 1496 1492 1490 1489 1487 1485 1482 1479 1476 1472 1468
1499 1500 1504 1508 1511 1507 1510 1514 1517 1520 1523 1525 1527 1528 1530 1530 1530 1528 1527 1527 1526 1524 1522 1519 1518 1516 1515 1515 1515 1513 1511 1507 1503 1500 1497 1494 1492 1490 1489 1486 1483 1479 1475 1470
1498 1498 1502 1507 1510 1508 1511 1514 1517 1520 1523 1525 1527 1528 1528 1528 1528 1527 1526 1526 1524 1521 1520 1519 1517 1516 1516 1517 1516 1515 1512 1509 1507 1504 1501 1499 1496 1495 1492 1489 1486 1481 1477 1472
1497 1498 1503 1507 1510 1511 1513 1514 1517 1519 1521 1523 1524 1525 1526 1526 1526 1526 1524 1523 1522 1521 1520 1519 1519 1519 1519 1519 1517 1515 1513 1511 1509 1506 1504 1502 1500 1498 1495 1491 1487 1483 1479 1474
1498 1500 1504 1506 1506 1508 1510 1513 1516 1518 1519 1521 1523 1524 1524 1525 1525 1524 1523 1522 1522 1521 1521 1522 1523 1522 1522 1520 1518 1516 1515 1512 1510 1508 1505 1503 1502 1500 1496 1492 1488 1484 1482 1478